"Pseudo-MPEC" for P21JQET

Created 2023 Sep 21 11:22:30 UT using Find_Orb

Click here for an explanation of pseudo-MPECs

 
 Astrometry: 
     P21JQET* C2023 09 1817SPpdgBXs0$.RLY@Y`H?-#=:?iKpbI*XhqUFj?HNntaIou/=:q@F52
     P21JQET  C2023 09 181e96cTxg^1U/Astrometry@US_q!g?P)hE$Rb#\*hP*%99WwB5-bF52
     P21JQET  C2023 09 18j`;C[lLI7P!SI$iSG?7LYP]9(OiBs)x5EBp7n?(Eu5Hy%!FxlLWwF52
     P21JQET  C2023 09 18dK%jnfsQe.w-Xh!xKs`HL?#sJyOGc-TttN%96VoEUGJVtdXF*6s`F52
     P21JQET  C2023 09 18sQa6,gD`;r4@1%redacted;w1NvfclickuFvo0/;nyip_R.gPn(HF52
     P21JQET  C2023 09 18]3byx6u?1u;Z`$OT#%Z'gi)=]ef@hS\ARr=q]lf=RkGaHefeG[g6F52
     P21JQET 1C2023 09 18.80395 18 46 16.17 +58 03 30.9    ~9IK7 21.0 VXNEOCP033
     P21JQET 1C2023 09 18.80603 18 46 16.60 +58 03 32.8    ~9IK7 21.0 VXNEOCP033
     P21JQET 1C2023 09 18.80811 18 46 17.00 +58 03 34.6    ~9IK7 21.1 VXNEOCP033
     P21JQET KC2023 09 19.12965618 47 24.515+58 08 52.15   ~9J3q 20.66GVNEOCPI52
     P21JQET KC2023 09 19.13442218 47 25.336+58 08 56.47   ~9J3q       VNEOCPI52
     P21JQET KC2023 09 19.13921918 47 26.380+58 09 01.44   ~9J3q 20.41GVNEOCPI52
     P21JQET KC2023 09 19.14403318 47 27.272+58 09 05.76   ~9J3q 20.83GVNEOCPI52
     P21JQET !C2023 09 19e^M*Jnr$P:0#1'`WGXdl%K;DkD8ae(JUeN#],TQWwqNhereEO8kT673
     P21JQET !C2023 09 19c,yTfwF(c(bg]M;;eHopgw;;'S,5pmh$Y@Jfora],$JCQ?^gS3`3673
     P21JQET 1C2023 09 19.78977 18 49 47.20 +58 19 16.2    ~9JJM 21.2 VXNEOCP033
     P21JQET 1C2023 09 19.79138 18 49 47.53 +58 19 17.6    ~9JJM 21.0 VXNEOCP033
     P21JQET 1C2023 09 19.79300 18 49 47.88 +58 19 19.2    ~9JJM 21.1 VXNEOCP033
     P21JQET KC2023 09 19Ve;qFHW[J$B^DFy',#QOUp4K8A^RU8.t-Y@UjUM;YIS#IR*UV5+eL06
     P21JQET KC2023 09 19`?6R`O*oglCOKc^;?explanation20x5=_p`:PEk6[hY0L(RL'C5L06
     P21JQET KC2023 09 20e8.Q#-g@cj#@JS@;i^Q1qa79/L@R;`EJkHWXBt83QY]+SSNk*:cEH21
     P21JQET KC2023 09 20Q=_aiYm*?8.1:?C]9\JkoaPHn$mRVxJs7eJX!jK/U?ORVBhZg7v=H21
     P21JQET KC2023 09 21.18060218 55 05.495+58 41 12.19   ~9L5M 21.14GVNEOCPI52
     P21JQET KC2023 09 21.18959018 55 07.464+58 41 19.90   ~9L5M 20.87GVNEOCPI52
     P21JQET KC2023 09 21.19691018 55 09.084+58 41 25.80   ~9L5M       VNEOCPI52
     P21JQET KC2023 09 21.20432718 55 10.880+58 41 32.46   ~9L5M 20.69GVNEOCPI52

Station data:
(033) Karl Schwarzschild Observatory, Tautenburg  (N50.980137 E11.711240)
   Germany.  Observer B. Stecklum. 1.34-m f/3 Schmidt + CCD.
(673) Table Mountain Observatory, Wrightwood  (N34.381485 W117.682170)
   US/California.  Observers J. Chesley, J. Pittichova. Measurer W. M. Owen
   Jr. 0.61-m f/16 reflector + CCD.
(F52) Pan-STARRS 2, Haleakala  (N20.707382 W156.255910)  US/Hawaii.
   Observers J. Bulger, T. Dukes, T. Lowe, A. Schultz, M. Willman. Measurers
   K. Chambers, S. Chastel, T. de Boer, L. Denneau, J. Fairlamb, H.
   Flewelling, M. Huber, C.-C. Lin, E. Magnier, Y. Ramanjooloo, R. Wainscoat,
   R. Weryk. 1.8-m Ritchey-Chrétien + CCD.
(H21) Astronomical Research Observatory, Westfield  (N39.483054 W87.968270)
   US/Illinois.  Observer R. Holmes. Measurers S. Foglia, L. Buzzi, T.
   Linder, R. Holmes. 0.76-m f/3.0 astrograph + CCD0.81-m f/4.0 astrograph +
   CCD0.61-m f/4.5 astrograph + CCD0.40-m f/5.32 astrograph + CCD.
(I52) Steward Observatory, Mt. Lemmon Station  (N32.442544 W110.788920)
   US/Arizona.  Observers T. A. Pruyne, B. M. Africano, E. J. Christensen, G.
   A. Farneth, D. C. Fuls, A. R. Gibbs, A. D. Grauer, H. Gröller, J. A.
   Johnson, R. A. Kowalski, S. M. Larson, G. J. Leonard, D. Rankin, R. L.
   Seaman, F. C. Shelly, K. W. Wierzchoś. 1.0-m prime focus + CCD.
(L06) Sormano 2 Observatory, Bellagio Via Lattea  (N45.970100 E9.254030)
   Italy.  Observer G. Ventre. Measurers G. Ventre, P. Sicoli. 0.28-m f/10
   reflector + CCD.

Orbital elements:  P21JQET
   Perihelion 2023 Sep 21.74204 +/- 0.0565 TT = 17:48:32 (JD 2460209.24204)
Epoch 2023 Sep 21.0 TT = JDT 2460208.5   Earth MOID: 0.2344      AutoNEOCP
M 359.78612977 +/- 0.014            (J2000 ecliptic)
n   0.28821821 +/- 0.00533          Peri.  120.92274 +/- 0.14
a   2.26980437 +/- 0.028            Node   233.46616 +/- 0.10
e   0.5156245 +/- 0.00546           Incl.   20.44097 +/- 0.13
P   3.42                   H 20.87  G  0.15   U  9.2
q 1.09943741 +/- 0.00115    Q 3.44017133 +/- 0.0548
From 26 observations 2023 Sept. 18-21; mean residual 0".28
Residuals in arcseconds: 
230918 F52  .10-  .01-    230919 I52  .03-  .27-    230919 L06  .39+  .47-    
230918 F52  .05-  .06+    230919 I52  .88-  .42-    230919 L06  .46+  .34-    
230918 F52  .03+  .00     230919 I52  .03-  .08+    230920 H21  .08+  .05-    
230918 F52  .09+  .01+    230919 I52  .42-  .08-    230920 H21  .27+  .23+    
230918 F52  .06+  .01-    230919 673  .42-  .38-    230921 I52  .00   .30+    
230918 F52  .02+  .01+    230919 673  .41+  .75+    230921 I52  .34-  .20+    
230918 033  .03-  .16+    230919 033  .15-  .10+    230921 I52  .52-  .22-    
230918 033  .15+  .10+    230919 033  .18-  .00     230921 I52  .46+  .07+    
230918 033  .10+  .05-    230919 033  .07-  .09+    

Ephemerides (geocentric):
Date (UTC) HH   RA             Dec           delta  r     elong  mag " sig PA
---- --------  ------------   ------------  ------ ------ -----  --- --------
2023 09 21 11  18 56 13.847   +58 45 20.49  .33561 1.0994  97.5 21.0 .068  40
2023 09 21 12  18 56 23.983   +58 45 59.04  .33546 1.0994  97.5 21.0 .073  36
2023 09 21 13  18 56 34.144   +58 46 37.55  .33531 1.0994  97.5 21.0 .078  33
2023 09 21 14  18 56 44.329   +58 47 16.03  .33516 1.0994  97.5 21.0 .083  30
2023 09 21 15  18 56 54.539   +58 47 54.48  .33501 1.0994  97.5 21.0 .088  28
2023 09 21 16  18 57 04.773   +58 48 32.89  .33486 1.0994  97.6 21.0 .094  26
2023 09 21 17  18 57 15.033   +58 49 11.28  .33471 1.0994  97.6 21.0 .100  24
2023 09 21 18  18 57 25.317   +58 49 49.63  .33456 1.0994  97.6 21.0 .106  22
2023 09 21 19  18 57 35.626   +58 50 27.94  .33441 1.0994  97.6 21.0 .113  21
2023 09 21 20  18 57 45.960   +58 51 06.22  .33426 1.0994  97.6 21.0 .120  19
2023 09 21 21  18 57 56.319   +58 51 44.47  .33411 1.0994  97.6 21.0 .126  18
2023 09 21 22  18 58 06.703   +58 52 22.68  .33396 1.0994  97.6 21.0 .133  17
2023 09 21 23  18 58 17.113   +58 53 00.86  .33381 1.0994  97.7 21.0 .141  16
2023 09 22 00  18 58 27.547   +58 53 39.01  .33366 1.0994  97.7 21.0 .148  15
2023 09 22 01  18 58 38.007   +58 54 17.12  .33351 1.0994  97.7 21.0 .156  14
2023 09 22 02  18 58 48.492   +58 54 55.19  .33336 1.0994  97.7 21.0 .163  13
2023 09 22 03  18 58 59.002   +58 55 33.23  .33321 1.0994  97.7 21.0 .171  13
2023 09 22 04  18 59 09.537   +58 56 11.23  .33306 1.0994  97.7 21.0 .179  12
2023 09 22 05  18 59 20.098   +58 56 49.20  .33291 1.0995  97.7 21.0 .187  11
2023 09 22 06  18 59 30.685   +58 57 27.13  .33276 1.0995  97.8 21.0 .196  11
2023 09 22 07  18 59 41.297   +58 58 05.02  .33261 1.0995  97.8 21.0 .204  10
2023 09 22 08  18 59 51.934   +58 58 42.88  .33246 1.0995  97.8 21.0 .213  10
2023 09 22 09  19 00 02.597   +58 59 20.70  .33231 1.0995  97.8 21.0 .221  10
2023 09 22 10  19 00 13.286   +58 59 58.48  .33216 1.0995  97.8 21.0 .230   9
2023 09 22 11  19 00 24.000   +59 00 36.23  .33201 1.0995  97.8 21.0 .239   9
2023 09 22 12  19 00 34.740   +59 01 13.93  .33186 1.0995  97.9 21.0 .249   9
2023 09 22 13  19 00 45.506   +59 01 51.60  .33171 1.0995  97.9 21.0 .258   8
2023 09 22 14  19 00 56.298   +59 02 29.23  .33156 1.0995  97.9 21.0 .267   8
2023 09 22 15  19 01 07.115   +59 03 06.83  .33141 1.0995  97.9 21.0 .277   8
2023 09 22 16  19 01 17.959   +59 03 44.38  .33126 1.0995  97.9 21.0 .287   8
2023 09 22 17  19 01 28.829   +59 04 21.89  .33111 1.0995  97.9 21.0 .297   8
2023 09 22 18  19 01 39.724   +59 04 59.37  .33096 1.0995  97.9 21.0 .307   7
2023 09 22 19  19 01 50.646   +59 05 36.80  .33081 1.0995  98.0 21.0 .317   7
2023 09 22 20  19 02 01.594   +59 06 14.20  .33066 1.0995  98.0 21.0 .327   7
2023 09 22 21  19 02 12.568   +59 06 51.55  .33051 1.0995  98.0 21.0 .337   7
2023 09 22 22  19 02 23.568   +59 07 28.87  .33035 1.0995  98.0 21.0 .348   7
2023 09 22 23  19 02 34.594   +59 08 06.14  .33020 1.0995  98.0 21.0 .359   7
2023 09 23 00  19 02 45.647   +59 08 43.37  .33005 1.0995  98.0 21.0 .370   7
2023 09 23 01  19 02 56.726   +59 09 20.56  .32990 1.0995  98.1 21.0 .381   7
2023 09 23 02  19 03 07.832   +59 09 57.71  .32975 1.0996  98.1 21.0 .392   7
2023 09 23 03  19 03 18.964   +59 10 34.82  .32960 1.0996  98.1 21.0 .403   7
2023 09 23 04  19 03 30.123   +59 11 11.89  .32945 1.0996  98.1 21.0 .414   7
2023 09 23 05  19 03 41.308   +59 11 48.91  .32930 1.0996  98.1 21.0 .426   7
2023 09 23 06  19 03 52.520   +59 12 25.89  .32915 1.0996  98.1 20.9 .438   7
2023 09 23 07  19 04 03.758   +59 13 02.82  .32899 1.0996  98.2 20.9 .449   7
2023 09 23 08  19 04 15.024   +59 13 39.72  .32884 1.0996  98.2 20.9 .461   7
2023 09 23 09  19 04 26.316   +59 14 16.57  .32869 1.0996  98.2 20.9 .473   7
2023 09 23 10  19 04 37.635   +59 14 53.37  .32854 1.0996  98.2 20.9 .486   7